Simultaneous Nadir Overpasses (SNOs) Predictions

Prediction of SNOs between METOP-A and TERRA Satellite Orbit:

Table of predicted SNOs for the next 14.0 days since TLE Epoch: 10/22/2016
Index Date (METOP-A) Time (METOP-A) Lat,Lon (METOP-A) SZA (METOP-A ) Date (TERRA) Time (TERRA) Lat,Lon (TERRA) SZA (TERRA ) Distance(km) Time Diff (sec)
1 10/23/2016 17:22:42 81.29, -34.09 96.09 10/23/2016 17:23:42 81.28, -34.07 96.12 0.52 60
2 10/23/2016 18:13:21 -81.30, 133.82 83.83 10/23/2016 18:13:08 -81.30, 133.85 83.83 0.70 13
3 10/26/2016 12:57:04 81.29, 32.45 97.08 10/26/2016 12:57:58 81.29, 32.50 97.11 0.97 54
4 10/26/2016 13:47:44 -81.29,-159.99 82.89 10/26/2016 13:47:25 -81.29,-159.92 82.89 1.20 19
5 10/29/2016 08:31:27 81.29, 98.57 97.98 10/29/2016 08:32:16 81.28, 98.71 98.02 2.40 49
6 10/29/2016 09:22:06 -81.29, -93.43 81.93 10/29/2016 09:21:42 -81.30, -93.30 81.92 2.24 24
7 11/01/2016 04:05:47 81.29, 165.46 98.95 11/01/2016 04:06:33 81.29, 165.31 98.96 2.41 46
8 11/01/2016 04:56:27 -81.30, -26.90 81.00 11/01/2016 04:56:00 -81.29, -27.05 81.04 2.58 27
9 11/03/2016 23:40:10 81.29,-128.46 99.79 11/03/2016 23:40:53 81.28,-128.44 99.80 0.80 43




NCC Satellite Simultaneous Nadir Overpasses (SNOs) Prediction Service
